CAPE
382 303 165 223 521 743 423 263 235 56 25 76 44 9 6 16 33 24 5 0 1 1 14 5 0 0 0 0 0 0 0 0 0 0 0 0 0 0
11 24 273 498 653 453 317 209 102 62 18 47 50 44 17 20 33 18 1 0 13 10 3 0 0 0 0 0 0 0 0 0 0 0 0 0 0 0
361 342 341 394 288 327 218 67 0 16 14 29 19 13 4 4 44 19 18 6 10 6 0 0 0 0 0 0 0 0 0 0 0 0 0 0 0 0
199 186 301 249 192 115 136 69 40 19 3 5 9 6 20 18 23 7 4 0 0 0 0 0 0 0 0 0 0 0 0 0 0 0 0 0 0 0
153 101 200 236 34 1 6 164 45 11 9 7 11 9 6 19 3 6 4 11 2 0 0 0 0 0 0 0 0 0 0 0 0 0 0 0 0 0
93 170 155 63 0 12 44 62 38 26 21 11 5 6 5 5 3 1 3 0 0 0 0 0 0 0 0 0 0 0 0 0 0 0 0 0 0 0
252 181 157 101 57 40 61 70 23 15 13 7 5 2 2 2 2 3 0 2 0 0 0 0 0 0 0 0 0 0 0 0 0 0 0 0 0 0
127 134 21 5 0 0 14 18 15 2 6 4 3 1 4 2 1 0 3 19 14 13 5 0 0 0 0 0 0 0 0 0 0 0 0 0 0 0
39 3 1 6 9 0 0 0 0 0 0 2 0 2 1 1 0 4 4 4 6 3 0 0 0 0 0 0 0 0 0 0 0 0 0 0 0 0
3 110 51 40 2 13 4 1 0 0 2 10 3 6 16 5 5 43 78 96 10 0 0 0 0 0 0 0 0 0 0 0 0 0 0 0 0 0
165 64 37 18 0 1 0 0 0 0 0 2 4 23 29 81 100 43 16 4 0 3 0 0 0 0 0 0 0 0 0 0 0 0 0 0 0 0
45 26 1 0 0 0 4 11 0 0 0 4 1 0 0 3 0 6 17 23 37 0 0 0 0 0 0 0 0 0 0 0 0 0 0 0 0 0
7 3 0 0 0 0 26 32 0 0 2 29 19 10 0 0 14 166 139 110 0 0 0 0 0 0 1 0 0 0 0 0 0 0 0 0 0 0
1 2 0 0 0 0 5 0 0 0 0 0 0 0 0 0 0 1 0 0 0 4 0 0 0 0 0 0 0 0 0 0 0 0 0 0 0 0
37 6 0 0 0 0 0 0 0 0 0 0 0 0 0 0 0 0 0 0 0 0 0 0 0 0 0 0 0 0 0 0 0 0 0 0 0 0
1 0 0 0 0 0 0 0 0 4 3 0 0 0 0 0 0 0 0 0 0 0 0 0 0 0 0 0 0 0 0 0 0 0 0 0 0 0
0 0 0 0 0 0 0 0 0 0 0 0 0 0 0 0 0 0 0 0 0 0 0 0 0 0 0 0 0 0 0 0 0 0 0 0 0 0
0 0 0 0 0 0 0 0 0 0 0 0 0 0 0 0 0 0 0 0 0 0 0 0 0 0 0 0 0 0 0 0 0 0 0 0 0 0
0 0 0 0 0 0 0 0 0 0 0 0 0 0 0 0 0 0 0 0 0 0 0 0 0 0 0 0 0 0 0 0 0 0 0 0 0 0
0 0 0 0 0 0 0 0 0 0 0 0 0 0 0 0 0 0 0 0 0 0 0 0 0 0 0 0 0 0 0 0 0 0 0 0 0 0
0 0 0 0 0 0 0 0 0 0 0 0 0 0 0 0 0 0 0 0 0 0 0 0 0 0 0 0 0 0 0 0 0 0 0 0 0 0
0 0 0 0 0 0 0 0 0 0 0 0 0 0 0 0 0 0 0 0 0 0 0 0 0 0 0 0 0 0 0 0 0 0 0 0 0 0
0 0 0 0 0 0 0 0 0 0 0 0 0 0 0 0 0 0 0 0 0 0 0 0 0 0 0 0 0 0 0 0 0 0 0 0 0 0
CIN
-2 -0 -22 -21 -2 -0 -2 -8 -7 -29 -8 -4 -0 -15 -3 -0 -0 -0 -1 -0 -29 -25 -15 -28 -0 -0 -0 -0 -0 -0 -0 -0 -0 -0 -0 -0 -0 -0
-63 -52 -7 -0 -0 -0 -4 -7 -13 -20 -14 -3 -9 -1 -0 -0 -11 -16 -0 -0 -15 -11 -14 -0 -0 -0 -0 -0 -0 -0 -0 -0 -0 -0 -0 -0 -0 -0
-0 -0 -1 -0 -1 -0 -3 -10 -0 -43 -14 -0 -10 -23 -0 -0 -0 -1 -13 -0 -2 -8 -0 -0 -0 -0 -0 -0 -0 -0 -0 -0 -0 -0 -0 -0 -0 -0
-3 -3 -0 -0 -1 -16 -3 -8 -5 -47 -10 -17 -0 -0 -0 -2 -6 -18 -0 -0 -0 -0 -0 -0 -0 -0 -0 -0 -0 -0 -0 -0 -0 -0 -0 -0 -0 -0
-2 -13 -3 -0 -38 -14 -8 -0 -0 -31 -9 -13 -0 -0 -0 -4 -0 -32 -0 -0 -0 -0 -0 -0 -0 -0 -0 -0 -0 -0 -0 -0 -0 -0 -0 -0 -0 -0
-14 -7 -5 -11 -28 -24 -3 -1 -0 -0 -0 -4 -0 -0 -3 -7 -0 -0 -0 -0 -0 -0 -0 -0 -0 -0 -0 -0 -0 -0 -0 -0 -0 -0 -0 -0 -0 -0
-0 -1 -0 -1 -2 -7 -3 -0 -0 -0 -4 -2 -0 -1 -1 -0 -2 -0 -0 -1 -0 -0 -0 -0 -0 -0 -0 -0 -0 -0 -0 -0 -0 -0 -0 -0 -0 -0
-2 -0 -26 -60 -0 -30 -7 -22 -1 -3 -12 -0 -0 -0 -1 -0 -0 -0 -11 -32 -30 -0 -1 -0 -0 -0 -0 -0 -0 -0 -0 -0 -0 -0 -0 -0 -0 -0
-5 -22 -0 -1 -1 -0 -0 -0 -0 -7 -13 -36 -0 -0 -8 -0 -0 -45 -33 -1 -1 -1 -0 -0 -0 -0 -0 -0 -0 -0 -0 -0 -0 -0 -0 -0 -0 -0
-2 -0 -7 -0 -0 -4 -0 -0 -0 -0 -12 -17 -35 -24 -35 -62 -12 -13 -5 -9 -15 -0 -0 -0 -0 -0 -0 -0 -0 -0 -0 -0 -0 -0 -0 -0 -0 -0
-0 -0 -0 -2 -0 -0 -0 -0 -0 -0 -0 -49 -40 -35 -19 -5 -4 -29 -45 -43 -0 -1 -0 -0 -0 -0 -0 -0 -0 -0 -0 -0 -0 -0 -0 -0 -0 -0
-0 -1 -6 -0 -0 -0 -17 -4 -0 -0 -0 -32 -3 -0 -2 -57 -0 -9 -8 -3 -6 -0 -0 -0 -0 -0 -0 -0 -0 -0 -0 -0 -0 -0 -0 -0 -0 -0
-1 -0 -0 -0 -0 -0 -11 -15 -0 -0 -17 -27 -13 -4 -0 -0 -26 -2 -2 -0 -0 -0 -0 -0 -0 -0 -1 -0 -0 -0 -0 -0 -0 -0 -0 -0 -0 -0
-29 -18 -0 -0 -0 -0 -22 -0 -0 -0 -0 -0 -0 -0 -0 -0 -0 -39 -0 -0 -0 -26 -0 -0 -0 -0 -0 -0 -0 -0 -0 -0 -0 -0 -0 -0 -0 -0
-20 -24 -0 -0 -0 -0 -0 -0 -0 -0 -0 -0 -0 -0 -0 -0 -0 -0 -0 -0 -0 -0 -0 -0 -0 -0 -0 -0 -0 -0 -0 -0 -0 -0 -0 -0 -0 -0
-1 -0 -0 -0 -0 -0 -0 -0 -0 -5 -12 -0 -0 -0 -0 -0 -0 -0 -0 -0 -0 -0 -0 -0 -0 -0 -0 -0 -0 -0 -0 -0 -0 -0 -0 -0 -0 -0
-5 -0 -0 -0 -0 -0 -0 -0 -0 -0 -0 -0 -0 -0 -0 -0 -0 -0 -0 -0 -0 -0 -0 -0 -0 -0 -0 -0 -0 -0 -0 -0 -0 -0 -0 -0 -0 -0
-0 -0 -0 -0 -0 -0 -0 -0 -0 -0 -0 -0 -0 -0 -0 -0 -0 -0 -0 -0 -0 -0 -0 -0 -0 -0 -0 -0 -0 -0 -0 -0 -0 -0 -0 -0 -0 -0
-0 -0 -0 -0 -0 -0 -0 -0 -0 -0 -0 -0 -0 -0 -0 -0 -0 -0 -0 -0 -0 -0 -0 -0 -0 -0 -0 -0 -0 -0 -0 -0 -0 -0 -0 -0 -0 -0
-0 -0 -0 -0 -0 -0 -0 -0 -0 -0 -0 -0 -0 -0 -0 -0 -0 -0 -0 -0 -0 -0 -0 -0 -0 -0 -0 -0 -0 -0 -0 -0 -0 -0 -0 -0 -0 -0
-0 -0 -0 -0 -0 -0 -0 -0 -0 -0 -0 -0 -0 -0 -0 -0 -0 -0 -0 -0 -0 -0 -0 -0 -0 -0 -0 -0 -0 -0 -0 -0 -0 -0 -0 -0 -0 -0
-0 -0 -0 -0 -0 -0 -0 -0 -0 -0 -0 -0 -0 -0 -0 -0 -0 -0 -0 -0 -0 -0 -0 -0 -0 -0 -0 -0 -0 -0 -0 -0 -0 -0 -0 -0 -0 -0
-0 -0 -0 -0 -0 -0 -0 -0 -0 -0 -0 -0 -0 -0 -0 -0 -0 -0 -0 -0 -0 -0 -0 -0 -0 -0 -0 -0 -0 -0 -0 -0 -0 -0 -0 -0 -0 -0
Wind_Speed
22 23 22 22 21 16 20 23 18 22 22 20 16 7 7 15 19 18 18 14 10 8 8 9 11 9 13 12 12 10 10 11 13 12 12 15 17 19
20 20 19 17 14 12 18 18 14 15 19 19 17 10 14 17 18 15 12 9 10 10 12 6 7 9 10 11 10 9 10 11 13 15 17 18 19 20
22 21 17 17 12 11 12 16 15 9 10 15 8 13 19 19 13 10 9 9 8 5 3 5 5 9 8 6 8 10 12 13 14 17 18 20 21 23
21 21 24 20 10 14 15 16 8 8 9 11 16 23 18 14 11 11 8 6 7 7 7 3 5 4 6 8 9 11 13 14 16 17 19 20 22 23
22 23 25 24 9 14 18 20 5 15 20 15 17 14 14 12 12 11 8 8 9 2 1 3 5 6 7 9 11 13 15 16 17 19 20 22 23 25
24 25 24 23 18 11 6 11 12 10 25 23 15 17 11 9 11 12 7 6 2 1 4 6 6 8 10 12 14 15 16 17 19 21 22 23 24 25
23 12 13 13 4 12 7 2 10 9 15 26 17 13 13 13 12 12 7 6 6 6 9 11 13 11 13 15 15 16 18 19 21 22 22 23 24 25
10 11 21 2 7 8 2 8 6 15 13 17 18 20 12 12 10 10 8 11 8 7 10 15 12 12 13 14 15 17 19 21 21 22 23 23 23 23
6 15 5 8 6 4 8 13 9 5 6 12 14 17 13 10 17 14 10 10 9 18 16 13 11 13 13 15 17 19 20 21 21 22 23 22 21 24
5 2 12 11 4 9 12 11 5 5 8 13 13 14 9 11 11 6 6 6 9 18 11 11 11 12 13 15 18 18 19 19 21 22 24 24 24 24
3 5 9 9 12 10 20 8 4 5 5 10 11 13 8 5 3 7 11 21 18 12 10 10 10 12 12 14 15 16 17 19 20 22 25 28 28 26
4 1 9 10 12 15 15 21 12 14 11 12 15 9 5 5 30 26 21 15 12 10 9 10 9 11 14 12 11 12 14 15 17 20 24 28 31 28
2 3 20 18 10 27 28 10 13 13 10 10 15 27 22 19 13 7 7 8 8 12 8 11 8 8 14 12 11 13 13 16 18 18 21 25 26 29
4 5 7 21 18 27 26 35 36 35 33 30 24 21 18 13 8 8 9 11 13 12 9 12 10 8 11 12 12 13 14 16 19 22 24 25 23 24
35 35 35 30 26 19 24 26 31 25 22 20 16 13 12 9 9 9 10 11 13 14 12 11 10 12 11 12 13 15 15 16 20 23 25 26 27 27
35 33 32 27 21 4 15 31 27 24 20 15 13 10 10 11 9 9 9 10 11 13 14 13 13 12 13 14 14 15 16 17 21 23 25 25 25 26
31 30 28 27 27 26 25 24 19 17 16 13 12 11 10 8 7 7 7 8 9 9 11 12 14 14 14 14 14 15 17 19 22 24 26 26 25 26
26 24 23 23 22 21 20 19 18 17 14 11 10 9 7 6 6 5 5 5 7 7 9 10 11 14 15 18 23 19 19 20 21 22 24 27 26 25
22 20 19 19 20 19 20 20 19 19 17 14 9 8 7 6 5 4 3 5 7 8 9 9 10 12 16 19 17 20 20 21 22 22 23 24 25 25
22 19 19 18 16 14 15 17 15 14 14 13 10 8 6 4 2 2 2 3 6 8 8 8 10 12 16 21 18 17 19 20 22 24 24 24 22 22
19 19 14 16 17 20 19 16 13 11 10 7 5 4 3 2 2 2 3 4 4 4 7 9 13 13 14 16 18 15 17 18 19 22 23 24 26 25
15 18 18 16 16 16 15 14 12 10 8 7 6 6 5 5 5 5 4 5 4 6 8 10 9 10 15 18 17 15 15 17 17 14 16 19 24 28
15 15 15 15 14 12 10 9 10 9 9 8 8 7 7 7 7 6 6 6 6 7 7 8 9 10 15 17 13 14 14 17 18 18 16 12 17 21
Wind_Direction
159 162 212 223 224 243 220 211 222 216 217 229 239 234 148 138 154 151 169 166 140 121 125 111 102 94 98 84 88 54 21 351 334 5 30 360 354 353
145 210 225 231 243 247 217 217 235 230 233 236 225 191 154 145 158 161 156 159 122 123 109 106 90 84 77 79 52 22 6 0 359 352 353 356 355 354
170 179 214 217 228 235 232 229 231 267 244 215 127 133 146 134 157 148 151 142 137 146 129 90 65 72 53 357 18 353 10 0 7 357 358 357 354 351
168 175 165 199 245 242 245 227 240 233 88 105 128 120 134 138 141 156 147 166 194 209 85 59 44 347 346 6 355 357 359 4 7 9 6 3 0 358
153 158 160 175 259 241 220 210 209 95 103 101 128 139 147 159 142 124 163 182 199 195 17 352 6 324 341 4 15 13 18 23 18 15 9 5 3 360
147 137 143 153 195 218 213 203 101 111 111 111 125 132 144 157 156 134 144 181 164 357 15 22 7 22 29 30 33 36 32 25 14 9 7 6 5 4
149 69 198 205 157 215 224 191 99 119 107 123 128 133 129 136 148 186 114 98 71 60 62 62 60 42 38 35 35 31 22 14 9 10 12 10 9 8
229 29 161 307 226 224 159 66 98 112 125 118 126 128 160 135 174 127 106 95 72 62 72 74 55 42 28 27 30 17 11 11 14 13 10 13 16 17
10 61 209 46 27 38 60 76 80 117 165 143 134 179 139 127 118 113 106 90 75 104 89 68 44 31 28 20 12 12 15 17 17 15 14 17 18 14
264 354 68 71 13 62 68 73 78 184 172 192 164 175 160 124 114 108 88 64 70 102 68 46 45 25 22 16 11 17 20 24 20 17 14 11 10 9
267 244 48 40 61 72 90 92 112 156 131 177 178 184 174 175 172 96 91 108 106 87 78 40 30 22 20 16 24 27 26 22 21 18 13 8 6 5
234 1 57 53 77 82 77 89 83 86 111 131 183 197 182 122 135 140 123 100 89 59 49 20 28 21 5 15 23 26 25 22 20 17 14 9 4 6
177 97 91 75 186 172 157 118 89 103 114 117 108 115 108 107 93 48 73 31 68 357 41 18 23 19 359 13 14 14 15 13 11 12 11 9 8 7
135 124 100 176 180 168 165 138 127 129 122 117 111 109 106 94 63 38 12 3 356 10 50 13 20 23 10 9 8 12 11 10 6 2 1 3 5 5
151 150 145 155 165 184 180 111 128 120 108 106 101 97 92 73 63 50 39 29 16 16 24 28 27 16 14 7 5 4 3 5 3 359 356 357 358 360
141 150 155 169 189 201 100 151 138 123 115 102 98 86 81 89 78 66 59 50 32 20 22 24 25 23 14 9 7 4 3 358 356 355 355 355 357 360
140 145 147 149 144 136 133 136 119 114 115 106 103 104 98 88 73 73 56 49 29 28 21 22 19 16 16 12 5 1 358 356 355 354 354 355 357 360
140 139 140 139 139 138 137 138 137 135 129 118 112 112 106 99 83 72 66 57 37 31 21 17 17 8 5 0 352 352 355 356 356 356 357 357 358 2
149 140 139 141 146 146 150 154 156 155 150 146 133 131 125 120 103 81 55 23 7 2 1 8 3 357 350 343 352 354 350 353 353 355 359 0 359 1
162 150 153 151 150 147 153 157 157 155 158 157 152 148 142 131 95 25 8 1 348 343 351 355 349 350 349 346 351 352 356 354 353 354 358 359 1 3
165 168 154 159 163 170 169 167 166 168 168 173 179 184 197 207 275 301 324 323 327 335 336 343 345 356 1 0 352 350 351 360 1 358 1 2 2 3
171 176 176 172 171 173 173 175 177 180 187 198 209 219 234 256 281 287 303 316 301 320 329 342 353 350 350 345 343 349 353 357 1 11 12 11 6 1
181 180 181 182 182 182 185 188 190 195 203 214 222 230 241 248 250 271 286 295 295 310 322 329 343 349 351 347 347 350 354 355 1 2 6 10 7 5